AC4VM Weather Reports


Display with metric or nautical units.
time (UTC)temp
F
wind
direction
speed
MPH
gust
MPH
rain 1hr
in
rain 24hr
in
rain mn
in
humidity
%
barometer
mb
20260903213052 95 79 2.0 5.0 0.00 0.00 0.00 48 1012.5
20260903211615 96 2 2.0 6.0 0.00 0.00 0.00 46 1012.4
20260903210054 96 47 6.0 9.0 0.00 0.00 0.00 48 1012.6
20260903204548 94 85 4.0 7.0 0.00 0.00 0.00 48 1012.8
20260903203047 96 344 6.0 11.0 0.00 0.00 0.00 46 1012.9
20260903201546 96 345 3.0 10.0 0.00 0.00 0.00 45 1013.1
20260903200044 96 33 6.0 9.0 0.00 0.00 0.00 45 1013.2
20260903194546 95 19 5.0 11.0 0.00 0.00 0.00 46 1013.3
20260903193041 96 295 4.0 8.0 0.00 0.00 0.00 47 1013.5
20260903191539 95 36 5.0 10.0 0.00 0.00 0.00 47 1013.7
20260903190037 95 339 3.0 9.0 0.00 0.00 0.00 49 1014.0
20260903184537 95 49 1.0 9.0 0.00 0.00 0.00 50 1014.0
20260903183034 94 45 1.0 7.0 0.00 0.00 0.00 51 1014.3
20260903181532 94 79 1.0 9.0 0.00 0.00 0.00 50 1014.4
20260903180029 94 70 3.0 10.0 0.00 0.00 0.00 53 1014.6
20260903174549 94 44 3.0 7.0 0.00 0.00 0.00 53 1014.8
20260903173028 94 109 3.0 6.0 0.00 0.00 0.00 54 1015.0
20260903171529 93 64 3.0 5.0 0.00 0.00 0.00 57 1015.2
20260903170024 92 127 2.0 10.0 0.00 0.00 0.00 55 1015.5
20260903164522 92 348 2.0 6.0 0.00 0.00 0.00 59 1015.6
20260903163020 91 73 3.0 8.0 0.00 0.00 0.00 59 1015.7
20260903161523 91 118 3.0 7.0 0.00 0.00 0.00 64 1015.8
20260903160018 91 343 2.0 6.0 0.00 0.00 0.00 61 1016.0
20260903154515 89 46 4.0 6.0 0.00 0.00 0.00 63 1016.1
20260903153013 88 111 2.0 7.0 0.00 0.00 0.00 67 1016.1
20260903151511 87 66 3.0 7.0 0.00 0.00 0.00 67 1016.1
20260903150010 87 37 4.0 6.0 0.00 0.00 0.00 68 1016.2
20260903144507 86 70 4.0 7.0 0.00 0.00 0.00 68 1016.1
20260903143005 84 112 4.0 8.0 0.00 0.00 0.00 71 1016.1
20260903141504 84 86 4.0 6.0 0.00 0.00 0.00 72 1016.1
20260903134559 82 310 1.0 4.0 0.00 0.00 0.00 79 1016.2
20260903133056 80 60 0.0 4.0 0.00 0.00 0.00 82 1016.2
20260903131557 79 55 1.0 3.0 0.00 0.00 0.00 85 1016.3
20260903130059 78 55 1.0 4.0 0.00 0.00 0.00 86 1016.5
20260903124543 76 28 0.0 2.0 0.00 0.00 0.00 90 1016.4
20260903123040 75 14 0.0 2.0 0.00 0.00 0.00 92 1016.3
20260903121540 73 274 0.0 1.0 0.00 0.00 0.00 94 1016.2
20260903120036 72 274 0.0 2.0 0.00 0.00 0.00 95 1016.1
20260903114534 70 274 0.0 2.0 0.00 0.00 0.00 95 1016.0
20260903113032 70 274 1.0 2.0 0.00 0.00 0.00 95 1015.8
20260903111554 70 274 0.0 0.0 0.00 0.00 0.00 95 1015.6
20260903110030 70 274 0.0 0.0 0.00 0.00 0.00 95 1015.5
20260903104528 70 274 0.0 0.0 0.00 0.00 0.00 95 1015.4
20260903103026 70 274 0.0 0.0 0.00 0.00 0.00 94 1015.1
20260903101525 71 274 0.0 0.0 0.00 0.00 0.00 95 1014.9
20260903100025 71 274 0.0 0.0 0.00 0.00 0.00 94 1014.9
20260903094524 70 274 0.0 0.0 0.00 0.00 0.00 94 1014.9
20260903093034 71 274 0.0 1.0 0.00 0.00 0.00 94 1014.9
20260903091531 71 274 0.0 2.0 0.00 0.00 0.00 94 1015.0
20260903090021 71 274 0.0 1.0 0.00 0.00 0.00 94 1015.1
20260903084520 71 274 0.0 1.0 0.00 0.00 0.00 94 1015.1
20260903083021 71 274 0.0 2.0 0.00 0.00 0.00 94 1015.1
20260903081518 71 274 0.0 1.0 0.00 0.00 0.00 93 1015.0
20260903080017 71 274 0.0 0.0 0.00 0.00 0.00 93 1014.9
20260903074515 72 274 1.0 2.0 0.00 0.00 0.00 93 1014.9
20260903073033 72 274 0.0 0.0 0.00 0.00 0.00 93 1014.9
20260903071515 72 274 0.0 0.0 0.00 0.00 0.00 93 1014.8
20260903070015 72 274 0.0 0.0 0.00 0.00 0.00 92 1014.7
20260903064512 73 274 1.0 2.0 0.00 0.00 0.00 92 1014.7
20260903063011 73 262 0.0 1.0 0.00 0.00 0.00 92 1014.9
20260903061523 73 262 0.0 0.0 0.00 0.00 0.00 92 1014.9
20260903060008 73 262 0.0 0.0 0.00 0.00 0.00 92 1014.9
20260903054508 73 262 0.0 0.0 0.00 0.00 0.00 91 1015.1
20260903053005 73 262 0.0 0.0 0.00 0.00 0.00 91 1015.1
20260903051504 74 262 0.0 0.0 0.00 0.00 0.00 90 1015.0
20260903050003 74 262 0.0 0.0 0.00 0.00 0.00 90 1015.0
20260903044501 74 262 0.0 0.0 0.00 0.00 0.00 90 1015.0
20260903043001 74 262 0.0 3.0 0.00 0.00 0.00 89 1015.0
20260903041559 74 256 0.0 4.0 0.00 0.00 0.00 89 1015.1
20260903040106 75 268 2.0 4.0 0.00 0.00 0.00 90 1015.0
20260903034553 76 287 0.0 1.0 0.00 0.00 0.00 88 1015.0
20260903033054 75 286 0.0 0.0 0.00 0.00 0.00 88 1014.9
20260903031552 76 286 0.0 0.0 0.00 0.00 0.00 87 1015.0
20260903030110 76 286 0.0 1.0 0.00 0.00 0.00 86 1014.8
20260903024551 77 286 0.0 0.0 0.00 0.00 0.00 87 1014.9
20260903023051 77 286 0.0 2.0 0.00 0.00 0.00 84 1014.9
20260903021550 78 310 0.0 0.0 0.00 0.00 0.00 84 1014.9
20260903020049 78 310 0.0 1.0 0.00 0.00 0.00 85 1014.9
20260903014558 79 310 0.0 1.0 0.00 0.00 0.00 83 1014.9
20260903013049 80 310 0.0 1.0 0.00 0.00 0.00 80 1014.7
20260903011605 80 310 0.0 2.0 0.00 0.00 0.00 80 1014.5
20260903010057 81 310 0.0 1.0 0.00 0.00 0.00 78 1014.4
20260903004547 81 310 0.0 1.0 0.00 0.00 0.00 81 1014.4
20260903003046 82 310 0.0 1.0 0.00 0.00 0.00 76 1014.3
20260903001546 84 310 0.0 1.0 0.00 0.00 0.00 73 1014.2
20260903000045 85 310 0.0 0.0 0.00 0.00 0.00 69 1014.0
20260902234544 88 310 0.0 2.0 0.00 0.00 0.00 66 1014.0
20260902233045 89 19 0.0 1.0 0.00 0.00 0.00 58 1014.1
20260902231600 90 29 0.0 3.0 0.00 0.00 0.00 55 1014.1
20260902230043 91 86 1.0 3.0 0.00 0.00 0.00 52 1014.1
20260902224555 92 118 2.0 4.0 0.00 0.00 0.00 51 1014.1
20260902223050 93 283 0.0 3.0 0.00 0.00 0.00 50 1014.4
20260902221549 93 43 3.0 5.0 0.00 0.00 0.00 49 1014.2
20260902220053 93 70 2.0 5.0 0.00 0.00 0.00 49 1014.4
20260902214538 93 87 1.0 4.0 0.00 0.00 0.00 48 1014.4